Regional Weather Roundup
Issued by NWS Charleston, WV

Home | Current Version | Previous Version | Graphics & Text | Print | Product List | Glossary On
Versions: 1 2 3 4 5 6 7 8 9 10 11 12 13 14 15 16 17 18 19 20 21 22 23 24 25 26 27 28 29 30 31 32 33 34 35 36 37 38 39 40 41 42 43 44 45 46 47 48 49 50
983
ASUS41 KRLX 051610
RWRRLX
West Virginia Regional Weather Roundup
National Weather Service Charleston WV
1100 AM EST FRI FEB 05 2016

Note: "fair" indicates few or no clouds below 12,000 feet with no
significant weather and/or obstructions to visibility.

WVZ003-051700-
Northern Panhandle of West Virginia

CITY           SKY/WX    TMP DP  RH WIND       PRES   REMARKS
WHEELING         N/A     28  15  58 NW9       30.38R
$$

WVZ009-051700-
Northwest West Virginia

CITY           SKY/WX    TMP DP  RH WIND       PRES   REMARKS
PARKERSBURG      N/A     31  15  52 N8        30.47R
$$

WVZ006-051700-
Western West Virginia

CITY           SKY/WX    TMP DP  RH WIND       PRES   REMARKS
HUNTINGTON       N/A     33  18  53 NE3       30.46F
$$

WVZ015-051700-
West Central West Virginia

CITY           SKY/WX    TMP DP  RH WIND       PRES   REMARKS
CHARLESTON       N/A     31  18  58 VRB3      30.45S
$$

WVZ022-031-051700-
North Central West Virginia

CITY           SKY/WX    TMP DP  RH WIND       PRES   REMARKS
CLARKSBURG     CLOUDY    31  16  54 W9        30.39R
MORGANTOWN       N/A     29  13  51 W3        30.38R
$$

WVZ025-035-042-045-051700-
Southern West Virginia

CITY           SKY/WX    TMP DP  RH WIND       PRES   REMARKS
BECKLEY          N/A     27  14  58 NW12      30.34R
LOGAN            N/A     28  16  59 W3        30.42S
BLUEFIELD        N/A     26  12  55 NW9       30.32R
LEWISBURG        N/A     31  15  49 N10G16    30.33R
$$

WVZ047-051700-
Northern Mountains of West Virginia

CITY           SKY/WX    TMP DP  RH WIND       PRES   REMARKS
ELKINS         CLOUDY    27  12  53 NW10      30.34R
$$

WVZ052-051700-
Eastern Panhandle of West Virginia

CITY           SKY/WX    TMP DP  RH WIND       PRES   REMARKS
MARTINSBURG    CLOUDY    36  20  52 NW22      30.30R
PETERSBURG     PTSUNNY   32  16  52 W5        30.37R
$$




USA.gov is the U.S. government's official web portal to all federal, state and local government web resources and services.